Погода в Ширазе

Иран     29°37′03″N   52°30′17″E
темп.,
°C
ветер,
м/с
пор.,
м/с
влажн.,
%
обл.,
%
осадки,
мм/ч
давл.,
гПа
погр.,
м
18 октября, пн
пн1800:30+18з22410 0.0 101416
03:30+17з22420 0.0 101413
06:30+17зсз22360 0.0 101413
09:30+24сз47200 0.0 10131369
12:30+27зсз99110 0.0 10112544
15:30+25зсз1010150 0.0 10111993
18:30+21зюз33200 0.0 101338
21:30+18з32210 0.0 101521
19 октября, вт
вт1900:30+16зсз32200 0.0 101416
03:30+14сз22160 0.0 101512
06:30+13ссз11140 0.0 101611
09:30+20в0170 0.0 1016387
12:30+26ю0330 0.0 10121621
15:30+25з6640 0.0 10111384
18:30+20з33100 0.0 101421
21:30+17з32150 0.0 101614
20 октября, ср
ср2000:30+16з22150 0.0 101512
03:30+16з21170 0.0 101511
06:30+15зсз11210 0.0 101611
09:30+23зсз25140 0.0 10161093
12:30+26з811100 0.0 10132034
15:30+24з810120 0.0 10131770
18:30+19зюз22190 0.0 101517
21:30+17зюз22250 0.0 101614
21 октября, чт
чт2100:30+15з22250 0.0 101613
03:30+14зсз22220 0.0 101513
06:30+14з11210 0.0 101610
09:30+21зсз01120 0.0 1016426
12:30+26з2580 0.0 10121978
15:30+25зюз46100 0.0 10111530
18:30+20зюз33170 0.0 101429
21:30+17з32220 0.0 101525
22 октября, пт
пт2200:30+15з22260 0.0 101515
03:30+14ссз22270 0.0 101512
06:30+12с22300 0.0 101813
09:30+16св23250 0.0 1019514
12:30+19в22220 0.0 10171513
15:30+21в32200 0.0 10161700
18:30+18в12250 0.0 101712
21:30+15в22300 0.0 102038